Regional Weather Roundup
Issued by NWS

Home | Current Version | Previous Version | Graphics & Text | Print | Product List | Glossary On
Versions: 1 2 3 4 5 6 7 8 9 10 11 12 13 14 15 16 17 18 19 20 21 22 23 24 25 26 27 28 29 30 31 32 33 34 35 36 37 38 39 40 41 42 43 44 45 46 47 48 49 50
000
ASUS45 KSLC 052310
RWRUT

UTAH REGIONAL WEATHER ROUNDUP
NATIONAL WEATHER SERVICE SALT LAKE CITY UT
400 PM MST THU MAR 05 2015

UTZ001>011-023>025-060000-

NORTHERN UTAH

CITY           SKY/WX    TMP DP  RH WIND       PRES   REMARKS
BRIGHAM CITY   SUNNY     45  18  34 CALM      30.42S
HILL AFB       NOT AVBL
LOGAN          SUNNY     46  18  32 E5        30.40S
OGDEN          SUNNY     47  19  33 CALM      30.41S
PROVO AIRPORT  MOSUNNY   45  23  42 VRB5      30.42S
SALT LAKE CITY MOSUNNY   48  21  34 CALM      30.41S
VERNAL         SUNNY     37  17  44 VRB3      30.36S
WENDOVER       SUNNY     46  23  39 S3        30.40S
HEBER CITY     SUNNY     43  18  36 CALM      30.38S
WEST JORDAN    SUNNY     46  21  36 CALM      30.41S

$$

UTZ012>022-026-027-060000-

SOUTHERN/CENTRAL UTAH

CITY           SKY/WX    TMP DP  RH WIND       PRES   REMARKS
BLANDING       SUNNY     42  25  50 S5        30.43S
BRYCE CANYON   SUNNY     31  14  49 NE8       30.38R WCI  23
CEDAR CITY     SUNNY     44   4  19 NE3       30.37S
DELTA          SUNNY     47  16  29 CALM      30.40S
HANKSVILLE     SUNNY     48  18  29 CALM      30.38S
MILFORD        SUNNY     49  18  29 NE9       30.37S
MOAB/CYNLANDS  SUNNY     48  11  22 N6        30.35S
PRICE          SUNNY     42  17  36 VRB3      30.35S
ST GEORGE      CLEAR     57  25  28 CALM      30.36F
KANAB          SUNNY     52  21  30 E3        30.38S

$$

REGIONAL REPORTS     COLORADO/ARIZONA

CITY           SKY/WX    TMP DP  RH WIND       PRES   REMARKS
CRAIG, CO      MOSUNNY   36  15  42 E5        30.34S WCI  32
GRAND JUNCTION SUNNY     44  16  32 W3        30.37R
RIFLE          SUNNY     43  13  29 W9        30.35S
MONTROSE       SUNNY     44  15  31 N3        30.36S
CORTEZ         SUNNY     45  21  38 W9        30.34S
PAGE, AZ       SUNNY     51  21  30 CALM      30.35S
GRAND CANYON   SUNNY     48  -5  11 NW3       30.36R
KINGMAN        SUNNY     62  23  22 N10       30.29F
FLAGSTAFF      SUNNY     44  14  29 E9        30.35R

$$

REGIONAL REPORTS    NEVADA/IDAHO/WYOMING

CITY           SKY/WX    TMP DP  RH WIND       PRES   REMARKS
LAS VEGAS, NV  SUNNY     64  20  18 CALM      30.27F
ELY            SUNNY     51  12  21 VRB3      30.36S
ELKO           SUNNY     54   6  14 SW10      30.35S
POCATELLO, ID  SUNNY     50  14  23 SW16      30.35S
BURLEY         SUNNY     53  11  18 W8        30.33S
EVANSTON, WY   SUNNY     34  17  50 SW17      30.35R WCI  23
ROCK SPRINGS   SUNNY     35  21  56 SW18      30.28R WCI  24
KEMMERER       SUNNY     36  14  41 W20G25    30.31S WCI  25

$$



USA.gov is the U.S. government's official web portal to all federal, state and local government web resources and services.